Wind_Speed
75 76 76 77 77 77 78 78 78 78 78 78 80 82 83 84 84 87 91 93 95 95 93 89 85 81 76 72 70 69 68 67 66 65 64 63 62 58 56 55 52 49 48 49 48 46 45 42 40 39 38 36 33 29 23 20 20 20 19 20 23 24 25 26 27 28 28 28 26 23 21 20 19 17 16 15 14 13 15 14 13 12 11 9 8
78 78 78 79 80 80 81 81 81 81 80 80 81 82 83 85 87 90 93 94 95 93 89 85 81 77 72 70 69 68 67 66 64 63 62 61 60 57 54 51 48 47 48 48 46 44 43 41 38 37 36 35 31 25 21 19 19 20 20 22 25 26 26 27 27 28 29 28 27 23 21 20 19 17 16 15 15 14 15 15 14 13 12 10 9
81 81 81 82 83 83 83 82 81 80 80 80 80 82 85 88 90 93 94 95 93 90 86 81 77 73 69 68 67 67 66 65 63 61 60 59 58 54 50 47 46 48 47 46 44 42 41 40 37 36 35 32 27 23 20 18 19 20 21 23 26 27 27 27 26 27 28 28 27 23 21 20 18 17 16 15 14 14 15 16 15 15 14 12 10
82 82 83 84 84 84 82 80 80 80 81 81 81 83 86 89 93 95 95 93 89 85 81 77 74 71 68 67 67 66 65 64 61 59 58 57 55 51 48 46 47 47 45 44 42 40 40 38 36 34 33 29 24 22 19 17 20 22 22 25 27 27 27 26 26 26 27 27 26 23 21 19 18 17 16 15 14 14 14 15 15 15 15 14 12
82 82 82 83 83 82 81 82 84 85 84 82 84 87 89 93 96 96 94 90 86 83 79 76 74 70 68 67 68 66 63 62 59 57 56 55 53 50 48 47 46 45 44 43 41 40 39 37 36 33 29 26 23 21 20 21 23 24 24 26 27 27 26 25 25 26 26 26 26 23 21 19 17 16 16 15 14 13 14 14 15 15 15 15 14
80 80 81 82 84 86 87 89 90 88 86 87 90 92 94 96 96 94 91 87 84 83 79 76 73 70 68 67 68 66 62 60 57 56 54 52 51 49 48 46 45 44 43 42 41 39 37 36 34 32 26 24 22 20 22 22 24 25 26 28 28 26 26 25 25 25 25 25 24 23 21 20 18 17 16 15 14 13 13 13 14 14 14 15 14
82 82 84 86 89 93 93 93 93 91 91 92 93 93 95 95 94 91 88 85 83 82 79 76 72 69 67 66 68 67 61 57 56 55 53 50 49 49 48 46 45 44 42 40 39 37 36 34 33 30 25 23 20 20 22 21 22 26 27 30 29 27 27 27 26 25 25 24 23 22 22 21 19 18 16 15 14 13 13 13 13 14 14 14 15
87 88 88 88 89 92 94 94 94 93 93 93 94 95 95 93 91 89 87 85 82 80 77 73 70 68 66 66 67 66 60 56 55 54 51 49 49 49 47 46 45 44 41 39 38 36 35 33 31 28 25 23 19 21 24 22 23 26 28 31 31 28 28 28 27 25 24 23 22 22 22 22 20 18 18 16 14 14 13 13 13 13 14 14 14
91 91 90 88 88 91 93 94 94 93 93 93 95 95 93 91 89 87 85 83 80 77 73 69 66 65 64 64 65 62 59 56 54 52 50 49 49 48 46 45 44 43 41 39 37 35 34 32 31 28 25 23 23 23 25 25 24 26 29 31 29 27 26 26 27 25 23 23 22 22 22 22 21 19 18 17 16 14 14 13 14 13 13 14 14
94 94 94 94 94 95 95 95 94 93 93 94 94 93 91 89 86 84 81 78 75 72 69 66 63 62 61 62 61 58 56 55 52 51 50 49 49 48 46 45 44 43 41 39 36 35 34 32 31 28 26 25 28 27 25 27 26 27 30 29 25 24 25 26 26 26 23 22 22 21 21 22 22 21 19 19 17 15 15 14 14 14 14 14 14
96 97 97 97 98 98 98 97 95 94 93 92 92 90 88 86 83 80 78 75 72 68 66 63 61 60 59 59 58 55 54 52 51 50 49 48 48 46 45 45 43 42 41 38 35 34 34 33 31 29 28 27 31 28 24 28 29 29 30 28 24 24 27 27 26 26 24 22 22 22 21 22 22 22 20 20 19 17 16 15 14 14 15 15 15
98 99 99 99 100 100 99 97 95 92 91 90 88 87 85 83 80 77 75 72 69 66 64 61 59 58 58 57 55 52 52 52 50 49 48 47 46 44 44 44 43 43 41 39 36 35 34 34 31 29 29 29 34 30 25 30 31 31 32 28 25 24 28 29 26 27 26 23 22 22 21 22 22 22 21 20 20 19 18 16 15 15 15 15 15
99 99 99 99 99 98 97 94 92 90 88 86 85 83 82 79 77 74 72 69 66 64 62 60 58 57 57 56 54 52 52 51 48 46 45 45 44 44 43 43 44 44 42 40 38 36 34 34 31 29 30 30 36 34 30 35 33 33 34 30 25 23 27 31 29 27 27 25 23 22 21 22 22 22 21 21 21 21 20 18 17 16 16 16 16
98 97 97 97 97 96 94 92 89 86 85 83 81 80 78 76 73 70 68 66 64 63 61 60 58 56 55 54 52 51 50 49 46 44 43 42 42 42 43 44 44 44 41 40 38 35 34 33 30 29 30 30 38 37 33 36 34 34 37 33 26 23 27 31 30 28 26 25 25 23 20 21 22 22 22 22 22 21 21 20 19 18 18 17 16
96 95 95 94 94 93 91 88 85 83 81 79 78 76 74 72 70 67 65 63 62 62 60 58 56 53 51 49 47 46 47 47 45 43 42 41 41 41 42 43 42 40 39 38 36 34 32 31 29 28 30 31 39 38 33 36 36 35 38 34 24 23 27 30 30 28 28 27 28 24 20 21 22 22 22 22 22 22 22 22 21 20 19 18 17
95 93 92 92 91 90 88 85 82 80 79 77 75 73 71 69 66 64 62 61 60 59 58 56 54 51 48 46 45 45 46 46 44 42 41 40 39 39 39 38 38 37 36 36 35 32 30 30 28 28 30 32 41 40 32 34 37 35 38 34 25 24 27 32 32 28 28 29 30 26 22 22 22 22 22 21 22 22 23 23 23 21 19 18 17
93 92 90 89 88 86 84 82 80 78 76 73 70 67 65 63 61 60 60 59 58 57 57 55 52 49 47 46 45 46 45 43 43 41 40 39 38 37 37 37 37 36 35 34 33 31 30 29 28 28 30 35 43 40 32 33 37 36 38 36 31 28 28 32 33 27 27 28 29 27 23 22 22 22 21 21 21 21 23 23 24 22 21 19 17
90 89 88 86 85 83 81 80 78 76 73 69 65 62 58 56 56 57 57 57 57 56 55 54 52 50 49 48 46 46 44 42 42 42 40 38 36 36 37 37 36 34 34 33 31 30 29 28 27 29 31 37 44 40 34 33 36 38 38 39 36 31 30 33 33 28 27 27 28 28 25 24 24 23 21 21 22 21 21 21 22 21 21 19 18
87 86 85 83 82 81 80 78 75 72 69 62 56 55 54 52 54 55 55 55 55 54 54 54 54 53 52 50 46 45 43 41 41 42 41 37 35 35 36 35 34 33 33 32 30 28 28 27 27 30 32 38 44 39 37 35 34 36 38 41 37 28 27 34 33 27 26 25 28 29 27 26 26 24 23 22 22 21 20 19 19 20 20 20 19
84 83 82 81 79 78 77 74 71 69 65 56 50 54 54 52 52 52 52 53 53 52 52 53 53 53 53 51 48 45 44 42 43 43 40 35 35 36 35 33 32 32 32 31 28 27 27 26 27 30 33 39 44 40 40 40 36 34 38 43 36 24 22 31 33 28 27 26 28 30 29 28 27 26 23 22 22 21 20 19 19 19 19 20 20
81 80 79 78 76 75 73 71 69 67 64 58 55 55 54 51 50 49 50 51 49 48 49 50 52 52 53 53 52 50 47 45 44 44 39 35 36 36 33 31 31 30 30 29 27 26 26 25 27 31 35 40 44 43 42 43 40 34 37 43 35 25 22 27 34 34 31 30 30 30 30 28 28 28 24 21 20 20 20 19 18 18 18 19 19
78 77 76 75 73 71 70 68 66 65 62 60 56 51 51 50 46 46 48 48 45 44 46 46 47 49 52 54 54 53 50 47 46 44 40 38 38 35 32 30 29 29 30 29 25 24 25 25 27 31 36 41 44 44 44 42 42 36 36 42 37 30 27 24 31 38 36 31 32 31 29 28 28 28 26 23 21 19 18 18 18 18 19 18 17
75 73 72 71 69 67 66 65 63 62 60 58 56 51 51 50 46 45 46 45 41 39 40 40 42 45 47 48 49 50 48 44 42 41 39 38 35 32 30 29 28 29 30 28 25 24 24 25 27 32 36 41 44 46 45 42 44 40 36 41 39 33 32 26 25 34 39 33 31 31 30 29 29 29 27 25 23 19 17 16 16 16 16 15 16
71 70 68 67 65 64 63 62 60 59 58 57 55 52 50 48 46 45 43 41 37 35 36 37 40 41 40 39 39 39 38 35 35 36 36 34 32 31 30 28 29 29 29 28 25 24 24 25 27 32 37 41 45 47 47 43 44 42 37 40 41 36 35 28 23 29 38 35 30 30 30 29 30 29 28 26 24 22 19 16 16 15 14 13 14
68 67 66 64 63 61 60 59 58 57 56 54 53 50 48 46 44 40 38 37 35 34 34 33 35 34 32 32 31 30 30 28 30 33 32 31 31 31 29 29 29 29 29 28 27 25 24 26 27 32 37 41 45 48 48 45 44 42 38 40 41 39 36 30 25 27 32 33 29 28 28 28 29 29 27 25 23 22 21 20 19 17 16 15 14
66 65 64 62 60 59 57 56 55 54 53 51 50 48 46 43 41 38 34 32 32 30 28 28 30 31 30 29 26 23 25 26 28 31 31 30 28 28 28 28 29 29 29 28 28 26 25 26 27 30 35 40 45 48 49 46 43 41 38 42 42 40 37 31 29 30 32 36 34 31 31 29 29 29 26 24 23 21 21 21 20 20 20 18 17
62 61 61 59 58 56 55 53 52 50 50 48 47 46 43 42 39 36 33 32 30 24 23 27 30 33 31 26 22 20 22 24 28 29 27 25 23 25 28 29 29 28 28 28 28 27 26 26 27 29 33 39 45 48 50 45 40 38 35 40 44 42 39 34 32 32 32 36 35 31 32 30 28 27 26 25 23 21 21 20 19 19 19 18 18
58 58 57 56 54 53 52 50 49 47 46 46 44 44 42 40 37 33 32 33 31 23 21 27 32 34 31 25 21 19 19 20 24 26 23 24 23 26 30 29 28 27 28 29 28 28 27 27 27 28 30 35 42 47 50 44 36 36 34 35 41 43 42 37 33 31 31 33 33 32 31 30 29 28 29 27 24 21 21 21 19 17 17 16 17
54 54 53 52 51 50 49 48 47 45 44 43 42 42 41 39 36 33 32 32 32 29 26 28 29 29 26 23 20 19 21 20 21 24 24 27 26 27 30 28 27 28 28 29 29 28 27 28 27 28 29 33 39 45 50 46 36 36 35 32 38 43 45 41 34 31 31 30 31 36 35 32 33 32 29 25 23 23 22 21 18 16 16 17 17
50 50 49 49 48 47 46 45 44 42 41 40 39 39 39 38 37 36 36 37 38 37 34 30 27 27 24 23 23 22 24 25 26 28 27 27 27 27 27 23 23 27 29 29 29 28 27 28 28 28 29 31 36 43 49 47 38 36 36 32 36 43 46 45 39 34 34 30 26 30 32 30 31 33 31 26 23 22 23 22 19 18 19 18 18
47 47 46 46 45 45 44 42 41 40 39 38 37 37 37 37 37 37 39 42 45 44 40 34 31 32 29 28 26 20 22 27 30 34 33 28 26 26 25 21 22 27 29 29 29 28 27 27 28 29 29 30 34 39 46 48 41 38 38 33 33 41 45 46 43 38 36 33 25 22 23 23 24 25 27 29 26 24 24 23 21 20 21 21 20
44 44 44 43 42 42 41 40 39 38 37 36 35 35 36 36 36 37 39 41 45 47 44 37 35 36 33 32 28 22 26 31 31 35 36 31 26 24 23 21 23 26 27 28 28 27 27 27 28 29 29 29 32 36 41 46 44 40 40 37 34 38 44 46 46 42 37 36 32 26 24 24 23 22 22 24 26 27 27 26 25 25 24 22 20
42 42 41 41 40 39 39 37 37 37 35 34 34 34 35 36 36 37 38 40 42 45 44 40 39 39 36 35 34 31 34 35 34 35 36 35 29 24 20 19 21 23 25 27 27 26 26 26 27 28 29 29 30 34 38 43 47 43 41 41 38 37 41 44 45 45 41 38 36 33 32 30 30 29 26 24 23 24 25 25 25 25 26 24 20
40 40 39 38 38 37 36 35 35 35 35 34 34 34 35 36 37 37 38 39 39 40 41 41 42 41 39 38 38 38 38 38 38 37 35 35 30 24 21 20 21 24 25 26 27 26 26 26 27 27 27 28 29 32 35 40 46 47 44 43 42 40 40 42 44 45 45 42 40 39 38 36 36 35 33 31 29 26 24 23 22 20 21 22 21
39 39 38 37 36 36 35 35 35 35 35 34 34 34 35 36 37 38 38 37 37 37 38 40 42 43 41 40 37 36 40 42 41 36 33 34 30 26 24 22 25 28 27 25 27 27 26 26 27 27 26 27 28 30 32 36 41 47 47 46 45 44 41 42 43 42 44 46 45 44 43 42 41 40 38 36 35 33 29 25 23 21 20 21 22
37 38 37 37 36 35 35 34 35 35 35 35 35 35 35 36 37 38 37 37 37 36 36 37 40 43 42 42 37 32 37 43 42 36 32 34 32 28 24 23 28 32 29 26 28 27 25 25 26 26 26 27 28 29 31 33 36 42 47 48 47 46 44 43 43 42 41 44 47 48 46 45 44 44 41 39 38 37 34 29 25 24 24 24 23
37 38 38 37 36 36 34 34 35 35 35 35 36 36 36 37 38 38 38 37 37 36 36 36 38 41 42 45 42 34 34 39 41 38 34 35 32 28 24 26 31 34 31 28 28 28 25 24 24 25 27 27 28 29 31 32 34 38 43 46 47 48 47 45 45 45 43 41 43 46 47 46 45 44 43 41 40 39 37 33 29 26 27 28 27
38 38 37 37 36 35 34 34 35 35 36 36 36 37 37 37 38 38 38 37 37 36 36 37 37 39 41 44 44 38 35 37 40 40 38 36 33 30 28 29 33 35 32 28 28 29 27 23 20 22 25 26 26 28 30 31 33 36 40 44 45 47 49 47 46 47 48 45 41 41 43 45 45 45 43 42 41 40 38 36 33 29 28 30 31
38 38 37 37 36 36 35 35 35 35 36 37 37 37 37 38 38 38 39 38 37 37 36 37 38 38 40 42 43 42 38 38 40 42 41 39 36 35 33 31 36 37 33 31 30 31 29 25 21 21 23 25 24 25 28 30 32 35 39 42 44 45 48 49 48 48 49 48 45 43 42 42 43 43 43 41 41 41 40 39 37 32 30 32 34
38 38 37 37 37 36 36 36 36 36 37 38 38 38 38 39 39 39 39 38 38 38 37 37 38 39 40 41 42 43 43 40 41 43 43 43 41 39 37 36 39 40 38 36 34 32 30 29 26 24 25 25 24 23 25 28 31 34 38 41 44 46 47 47 48 48 48 49 49 48 46 44 42 42 42 41 40 40 40 40 39 35 31 32 33
39 38 38 38 37 37 37 37 37 37 37 38 39 39 39 39 40 40 40 40 39 39 38 38 38 40 41 42 42 43 45 44 44 45 45 45 46 45 44 43 42 43 42 40 37 34 32 32 31 29 27 23 22 24 25 27 29 31 35 39 41 44 46 46 46 46 47 48 49 50 50 49 47 46 44 43 42 41 41 41 40 39 35 32 29
39 39 39 38 38 38 38 38 38 39 39 39 40 40 40 41 41 41 42 42 41 40 40 40 39 40 41 43 44 43 45 46 46 47 47 47 47 48 49 48 46 45 44 41 38 37 35 33 32 33 30 24 21 24 26 28 29 29 30 32 35 40 44 45 44 43 43 45 46 47 48 49 49 48 47 45 44 44 43 43 42 43 41 38 34
41 41 40 40 40 39 39 39 40 40 41 41 41 41 41 41 42 42 43 44 44 43 42 42 41 41 42 43 45 45 45 47 48 48 49 48 47 48 50 50 48 47 46 43 41 41 39 37 35 34 32 28 25 25 25 25 28 29 28 29 31 33 37 41 43 43 41 40 40 41 42 44 46 46 46 46 46 46 46 46 45 45 45 44 41
42 42 42 42 42 41 41 41 41 42 42 43 43 42 42 42 43 43 43 44 45 45 44 44 44 43 43 44 46 47 47 47 49 50 50 50 48 48 49 51 50 49 49 46 44 44 44 41 39 36 33 32 31 30 27 23 25 28 29 31 31 29 32 37 39 38 35 35 37 38 39 40 41 41 42 44 45 47 47 48 48 47 46 45 43
44 43 43 43 43 43 43 43 43 43 44 44 44 44 44 44 44 44 44 45 45 46 46 46 46 45 45 46 46 48 49 48 49 51 51 51 50 49 50 51 52 51 50 49 48 47 47 44 42 39 36 36 35 33 31 29 28 27 27 29 30 31 33 34 32 30 30 32 35 37 38 39 40 40 40 41 43 46 48 49 49 48 48 46 44
46 45 45 45 45 45 45 44 44 45 45 46 46 46 46 46 46 46 46 46 46 47 47 47 47 47 47 48 48 49 50 50 50 52 53 53 53 51 51 52 53 53 52 52 51 51 50 47 45 42 39 39 38 35 34 35 34 30 28 27 27 30 32 30 29 30 28 28 30 32 35 38 39 40 40 41 42 45 47 49 50 50 50 48 46
47 47 46 47 47 46 46 46 46 46 46 47 47 47 48 48 48 48 48 48 49 49 49 49 49 49 49 49 50 50 51 52 52 52 53 54 55 54 53 53 54 54 54 54 54 54 53 51 48 45 44 43 41 39 38 39 38 34 32 31 29 28 28 27 28 28 26 25 27 29 32 35 37 39 40 42 43 44 47 49 51 51 51 51 49
48 48 48 48 49 49 48 48 48 48 48 48 49 49 50 50 50 50 50 50 51 51 51 52 52 52 52 51 52 52 52 53 53 54 54 55 56 56 55 55 55 56 56 56 56 57 56 54 51 48 48 47 44 42 43 43 40 37 36 35 32 30 29 27 27 27 26 26 26 28 31 34 36 38 40 41 43 44 45 48 50 50 50 51 50
50 50 50 50 50 50 50 50 50 50 50 51 51 51 52 52 52 52 52 52 52 53 53 53 54 54 54 54 54 54 54 54 55 55 55 56 57 57 58 58 57 57 57 58 58 59 59 57 55 52 51 51 49 46 46 46 43 42 41 40 37 35 34 32 31 30 30 29 29 29 30 32 34 35 37 40 41 42 44 46 47 47 47 47 47
52 51 51 51 51 51 51 51 51 51 52 53 54 54 54 54 54 54 54 54 54 54 55 55 55 55 55 56 56 56 56 56 56 57 57 57 58 59 59 60 60 60 60 59 59 60 61 61 59 57 54 53 53 51 50 49 47 45 45 44 42 41 38 35 34 34 33 33 33 33 32 31 31 32 34 35 36 36 39 41 42 42 43 44 45
54 54 53 53 52 52 51 51 51 52 53 54 55 56 57 57 56 56 56 56 56 56 57 57 57 57 57 57 57 58 58 58 58 58 58 59 59 60 61 61 62 62 63 63 62 61 62 63 63 62 60 57 56 55 54 53 51 50 50 47 45 45 43 41 39 38 37 37 37 38 36 33 32 33 34 33 32 31 32 33 34 36 37 40 42
Wind_Direction
280 281 282 282 282 283 284 285 285 286 286 287 289 291 292 294 294 296 298 300 301 302 302 301 301 300 299 297 296 295 293 292 293 293 293 292 292 292 293 294 292 291 293 293 291 290 289 288 287 286 286 287 290 287 281 274 264 259 251 241 234 230 227 225 223 221 217 215 209 204 201 197 193 189 185 175 172 186 193 192 191 194 197 197 199
280 281 282 283 283 284 285 285 286 287 288 290 291 292 293 294 295 297 299 300 301 301 300 300 299 298 297 295 294 292 291 291 291 292 291 290 290 291 293 291 289 291 293 292 290 288 287 285 284 284 284 286 287 280 273 265 256 251 243 234 228 225 225 223 222 219 216 214 208 203 203 200 198 195 192 186 179 186 196 196 195 200 205 209 215
282 283 283 284 284 285 286 286 287 288 290 291 292 293 294 294 296 298 299 300 300 300 299 298 297 296 295 293 291 290 289 289 289 289 289 288 289 291 290 288 288 292 293 291 289 287 285 284 282 282 283 284 281 271 264 258 249 243 237 230 225 223 223 221 219 218 216 214 208 205 204 204 203 201 200 197 189 189 197 200 200 204 210 217 227
283 284 284 285 286 286 286 287 288 290 291 292 291 293 294 295 297 298 299 299 299 298 298 297 295 294 292 290 288 287 287 288 288 287 287 286 287 288 286 286 290 293 293 291 289 286 285 283 281 281 281 280 273 263 253 242 240 237 232 227 223 222 221 221 219 218 218 215 210 207 207 209 209 207 206 206 200 197 200 204 205 208 214 222 232
284 285 285 286 287 287 287 289 291 292 291 291 292 293 294 296 297 297 298 297 297 297 296 295 294 292 290 287 285 285 286 286 286 285 285 284 285 284 283 285 290 293 293 290 288 286 283 282 280 280 277 274 265 254 243 233 234 232 228 223 219 221 220 221 221 219 219 217 214 212 212 214 215 213 212 213 211 208 206 208 211 214 218 225 235
285 286 287 288 288 288 289 290 291 291 291 292 293 294 295 296 296 297 297 296 296 296 295 294 292 290 288 286 283 283 285 284 283 283 283 282 282 281 282 286 289 292 292 289 288 286 283 280 278 279 274 266 257 242 237 237 235 228 225 219 213 218 222 223 224 222 219 218 218 217 217 218 221 220 218 218 217 217 216 217 219 221 223 230 238
285 286 287 288 288 289 289 290 290 291 292 293 294 294 295 295 295 296 296 296 295 294 293 292 290 288 287 284 282 283 283 282 282 281 280 280 279 280 282 286 288 290 290 289 288 286 283 278 275 275 266 258 248 235 236 236 233 227 222 216 212 215 222 224 224 224 221 220 222 223 222 223 227 225 224 223 221 222 223 225 227 229 230 235 242
284 285 286 288 289 289 290 290 291 292 293 293 294 294 294 294 294 295 295 295 295 293 292 291 289 287 286 283 281 282 282 281 280 279 278 278 278 280 282 285 286 288 289 288 288 286 282 276 273 268 257 247 233 233 242 237 232 227 219 214 214 215 220 223 224 225 223 223 225 227 227 230 234 231 227 226 225 227 228 230 234 237 239 243 249
284 284 285 286 287 288 289 290 291 292 293 293 293 293 293 294 294 295 295 294 293 292 290 289 287 285 285 282 280 281 280 279 278 277 276 276 277 279 282 284 285 286 288 288 287 285 280 274 270 262 250 237 216 226 243 240 235 227 218 213 215 218 223 228 228 226 225 226 226 229 232 236 241 237 231 228 230 231 232 234 236 241 246 251 256
284 284 284 285 285 287 288 289 290 291 292 292 292 292 292 293 294 294 294 292 291 289 288 286 284 283 283 280 280 279 278 277 277 277 276 276 277 279 281 284 285 285 287 287 285 283 278 270 265 257 245 231 211 218 238 239 236 228 216 209 215 225 230 233 233 229 226 226 226 230 235 241 244 241 234 229 231 234 236 238 239 243 248 255 260
285 285 285 286 286 287 287 288 289 290 290 291 291 291 292 293 293 293 291 290 288 286 285 283 282 281 280 279 279 278 277 276 276 277 276 276 277 279 281 284 284 285 287 285 283 281 274 266 261 253 243 228 211 216 235 235 233 228 214 206 215 228 231 234 235 231 228 227 226 230 236 242 245 242 236 230 231 233 238 241 243 246 249 255 261
285 285 286 286 286 287 287 288 289 289 289 290 291 291 292 292 292 290 289 287 286 284 282 281 280 278 278 278 278 277 276 275 276 276 276 276 277 279 282 283 284 285 286 283 281 278 270 262 257 249 241 225 208 212 229 226 226 226 213 207 218 228 231 233 236 232 230 230 227 232 238 244 244 242 239 233 231 232 237 242 245 249 253 256 261
284 285 285 285 286 286 287 288 288 289 289 290 290 291 291 291 290 288 287 285 283 281 280 279 278 276 276 276 276 275 275 275 276 275 275 276 277 280 282 283 284 284 284 282 278 273 267 259 254 247 238 223 206 210 228 226 224 223 212 210 221 233 234 232 233 230 230 230 227 235 242 244 244 242 240 236 233 233 236 241 244 249 254 258 260
283 284 284 285 285 286 287 287 288 288 289 289 290 290 290 289 287 286 284 282 280 279 278 277 276 275 275 275 274 273 274 274 274 273 274 275 278 280 281 282 283 282 281 278 275 270 265 257 251 243 234 221 206 209 229 230 225 222 212 212 223 236 238 234 231 228 230 229 229 238 245 245 244 241 240 238 235 235 237 240 243 247 253 259 262
283 283 284 285 285 286 286 287 287 287 288 288 288 288 287 286 285 283 281 279 278 278 277 276 275 274 274 273 272 272 272 272 272 271 273 276 278 280 281 281 279 279 277 275 272 267 263 256 250 241 232 220 206 209 227 231 228 224 214 213 220 229 230 231 233 232 231 231 233 242 248 248 245 242 241 241 238 237 239 241 243 248 254 260 264
282 283 283 284 285 285 286 286 286 287 287 287 287 286 284 283 282 280 278 277 277 276 276 275 274 272 272 269 269 271 271 270 271 272 275 277 278 280 279 278 277 277 275 272 269 264 261 255 249 240 231 218 205 211 225 229 229 226 218 213 214 223 226 228 233 233 231 232 236 243 251 251 247 244 244 244 243 240 240 242 244 249 254 260 264
282 283 283 283 284 285 285 285 286 286 286 286 285 283 281 280 279 277 276 275 275 274 273 273 271 269 269 267 266 269 270 271 273 275 277 277 278 278 276 276 276 276 273 269 264 262 261 254 248 238 230 216 206 212 223 224 228 227 219 214 215 227 237 231 228 229 230 233 237 243 250 252 249 248 248 247 248 246 245 246 249 252 254 260 264
282 282 283 283 283 284 284 285 285 285 285 284 282 280 278 276 276 275 274 273 273 272 271 270 268 266 267 265 264 266 267 272 277 278 279 278 278 276 274 273 273 273 270 265 262 261 259 252 244 236 229 215 206 212 218 216 225 229 220 215 218 235 247 231 223 229 230 232 235 241 248 250 252 252 254 253 253 252 251 255 256 256 257 262 265
281 282 282 283 283 283 284 284 283 283 283 281 280 277 275 275 274 274 274 272 271 270 268 268 267 266 265 264 263 263 265 273 278 279 280 278 276 274 271 270 271 270 266 262 260 260 255 248 240 233 228 216 208 211 214 212 220 228 222 215 219 241 249 224 221 233 232 233 236 240 246 251 255 256 257 258 260 259 257 262 264 263 262 265 267
281 281 282 282 282 282 282 282 281 281 279 277 275 274 274 274 272 272 272 271 271 270 269 268 267 265 263 262 261 263 266 272 276 277 278 277 275 272 269 268 269 267 263 261 258 255 251 243 237 231 226 217 211 209 211 212 215 223 222 215 218 238 243 223 225 235 235 239 240 240 245 251 255 256 261 264 266 263 262 267 270 273 271 270 270
280 280 280 281 281 280 280 280 279 278 277 274 272 272 273 271 270 271 270 270 271 271 270 268 266 264 262 261 260 263 268 272 274 274 274 275 274 271 267 267 267 265 261 258 254 250 247 241 234 228 225 217 212 209 209 214 213 217 221 216 217 227 235 233 230 229 232 238 239 240 244 250 255 257 262 267 269 268 267 272 275 279 281 280 280
279 279 279 279 279 278 278 277 277 276 275 273 271 269 269 268 268 268 267 268 269 270 270 268 266 263 261 260 260 262 267 271 271 270 271 273 271 266 265 266 265 263 259 256 251 246 243 238 232 227 225 219 213 209 209 214 214 216 222 219 217 219 228 241 238 227 223 228 234 240 245 248 254 258 262 266 273 277 276 280 282 284 287 288 290
277 277 277 277 277 276 276 275 274 274 273 272 271 269 267 266 265 264 265 266 266 264 265 267 268 267 263 262 261 262 265 268 267 266 268 268 267 264 264 264 262 261 258 255 249 244 241 236 231 226 225 220 215 211 209 213 216 218 225 223 218 219 226 238 251 236 221 220 229 236 245 249 253 257 261 267 272 278 283 288 293 294 293 292 296
275 274 274 274 273 273 273 272 272 272 271 271 270 270 268 267 265 264 264 264 261 258 261 266 269 268 266 264 263 263 263 261 260 262 264 265 266 266 263 260 260 260 258 256 248 242 240 236 230 226 226 221 217 214 211 212 217 221 228 226 219 220 224 229 252 248 226 220 226 232 242 248 253 258 261 267 271 275 282 290 296 299 296 296 303
272 271 271 270 270 270 270 269 269 269 269 269 269 268 267 265 263 262 260 258 257 258 259 265 268 266 266 265 264 264 260 254 254 259 264 268 269 265 261 259 259 259 258 257 251 241 237 236 231 227 226 222 219 217 214 213 216 222 229 228 222 220 221 224 242 251 234 227 233 238 245 250 254 258 260 265 270 274 280 284 289 292 291 294 305
270 269 269 268 268 267 267 267 267 267 267 267 267 266 264 262 260 257 254 248 249 256 258 260 265 265 265 263 262 260 253 249 251 259 267 269 267 264 260 259 258 259 259 258 254 244 235 234 232 228 226 224 220 218 217 218 219 222 228 230 225 220 220 223 235 248 243 234 237 242 244 249 254 256 257 264 269 274 279 282 285 286 286 288 294
268 268 268 267 267 266 265 265 264 264 264 264 264 263 261 259 256 252 247 241 240 249 260 259 256 258 259 256 252 247 244 247 251 259 266 265 263 263 262 260 258 259 260 259 256 249 238 233 233 230 227 225 223 219 218 220 223 221 224 229 227 222 221 227 234 244 248 237 232 237 242 249 255 253 254 260 264 271 277 279 284 285 285 287 288
266 266 266 266 266 266 265 264 263 261 261 260 260 259 258 254 251 247 242 240 236 234 245 251 248 249 250 243 238 235 236 246 254 255 254 253 253 255 258 258 258 260 262 261 258 252 243 234 233 233 230 227 225 221 218 219 221 218 218 225 227 223 222 229 234 239 248 244 235 235 241 247 248 247 249 254 258 267 274 275 279 281 283 286 286
265 265 265 266 266 265 264 263 262 260 258 257 256 255 254 250 245 238 233 233 231 224 228 239 242 241 237 231 230 229 231 237 244 245 244 247 248 248 252 256 261 263 262 262 259 254 248 239 233 233 232 229 226 224 220 218 217 216 214 218 224 223 223 228 232 233 241 249 247 240 237 242 244 243 244 248 255 262 269 271 270 272 278 282 285
264 264 264 264 264 263 262 261 260 258 256 255 252 251 249 247 242 235 228 224 223 223 228 234 230 223 219 222 229 230 236 238 233 236 244 247 243 244 249 253 259 262 262 261 259 254 250 244 237 234 233 230 227 225 222 219 217 217 213 214 220 223 224 226 229 232 237 246 254 247 242 247 252 249 246 247 251 258 265 266 264 266 272 276 281
263 263 262 261 261 260 259 259 257 256 254 252 249 247 245 242 239 234 228 223 223 225 230 234 224 213 209 216 223 226 240 247 242 243 248 247 240 239 243 242 245 254 261 260 257 253 249 244 239 235 233 231 228 226 225 221 219 219 216 216 220 222 225 225 226 232 236 240 246 244 241 247 255 255 254 253 253 255 260 260 257 259 262 266 272
260 259 259 258 258 258 257 256 255 254 252 250 247 243 241 238 235 231 227 224 224 225 228 230 221 212 208 211 212 214 226 236 246 249 247 244 242 238 237 237 243 252 258 258 255 252 247 242 238 235 232 231 228 227 227 223 220 220 219 220 222 222 225 226 226 229 233 238 241 240 238 242 247 253 258 258 256 255 255 255 254 256 257 258 265
257 256 256 255 255 255 255 255 253 252 250 247 244 240 237 235 232 228 226 225 224 224 226 223 219 214 208 207 207 213 221 222 232 244 242 239 239 237 234 234 246 255 256 257 254 250 245 240 236 233 230 229 228 227 228 225 222 221 221 222 223 222 225 226 227 228 230 235 239 239 239 241 243 248 254 258 259 258 257 257 259 264 262 257 262
255 254 254 254 253 252 252 251 250 249 248 244 241 237 233 231 230 227 225 225 224 225 224 220 219 217 211 207 207 214 220 219 225 236 238 233 229 230 228 224 235 250 256 258 256 251 246 240 235 232 228 228 228 227 229 228 225 224 224 224 224 223 224 226 228 229 230 233 237 238 240 242 242 245 251 256 259 260 258 256 258 266 266 259 263
254 254 253 252 251 250 248 247 246 246 245 243 239 234 231 229 228 228 226 226 225 225 226 222 221 221 217 211 209 211 216 219 224 230 233 228 222 221 222 223 233 246 253 256 257 253 247 242 237 232 227 227 228 229 230 230 229 227 228 229 227 225 224 225 227 230 232 234 237 239 241 243 244 245 248 253 258 261 260 257 257 261 264 263 266
253 254 253 251 249 248 246 245 244 243 242 242 239 234 231 229 228 228 228 228 227 226 226 226 223 223 220 216 214 211 210 215 218 221 227 225 222 222 224 232 240 246 248 250 255 253 248 244 240 235 229 225 225 227 229 231 232 230 230 232 232 229 227 226 226 229 233 234 236 239 242 244 246 246 247 250 254 258 260 259 259 260 261 264 265
252 253 253 251 249 247 245 244 242 241 240 239 239 236 232 229 228 228 229 230 230 229 227 227 227 225 223 222 221 216 207 209 212 215 221 222 222 226 230 238 242 244 244 243 251 252 247 243 239 237 235 231 225 224 227 229 231 231 230 232 235 234 232 230 227 228 232 235 236 239 242 245 247 249 249 251 252 255 258 259 260 262 263 266 266
250 251 253 253 251 249 246 243 241 239 238 238 237 237 235 232 230 229 230 231 232 233 230 228 228 228 227 227 226 221 211 208 210 212 216 218 219 222 226 233 239 243 242 237 243 248 246 241 237 237 238 237 232 226 226 227 228 229 230 232 235 237 237 234 231 230 233 236 238 241 242 244 248 251 252 253 254 256 258 260 260 262 266 270 269
250 251 253 253 253 251 248 245 241 238 237 236 236 236 236 235 233 232 232 232 233 234 235 231 229 229 230 231 230 225 218 211 210 212 215 216 216 217 219 225 233 237 236 232 234 241 244 242 237 234 235 237 238 232 227 226 228 228 229 232 234 238 240 239 237 235 235 237 239 242 244 244 246 250 253 254 256 257 258 260 260 262 266 268 268
250 251 252 253 253 251 250 247 244 241 238 236 235 234 235 236 236 236 235 234 234 234 235 235 233 231 230 233 233 230 226 219 214 212 215 215 214 216 215 219 226 229 231 232 231 234 239 241 239 235 232 233 236 236 231 227 228 228 228 231 232 237 241 242 242 240 239 239 240 242 245 247 248 250 253 255 257 258 259 259 259 260 264 266 265
250 251 252 252 252 252 250 249 247 244 241 238 236 234 234 234 235 237 237 237 237 236 235 235 236 234 231 232 234 233 231 227 221 216 215 214 215 217 217 218 223 224 228 231 229 229 234 238 239 237 233 230 231 234 234 230 230 230 229 231 232 234 238 242 244 243 242 241 241 242 245 247 250 252 254 256 257 258 259 259 258 257 260 264 265
251 251 251 251 251 251 250 249 249 247 244 242 239 237 235 234 233 234 236 238 238 238 238 237 236 236 235 233 233 233 233 232 230 224 220 216 215 218 220 222 223 223 226 228 227 228 234 237 239 239 234 231 233 235 234 232 232 232 229 230 231 232 235 239 243 244 244 242 242 243 245 247 250 252 255 256 257 257 258 259 258 257 259 262 265
251 251 251 251 251 250 249 249 249 248 247 245 242 240 238 236 235 234 234 235 237 238 238 238 238 238 237 236 234 234 233 233 234 232 229 223 218 217 221 223 223 223 225 226 225 227 232 234 236 237 232 229 233 237 237 234 236 236 232 230 230 229 232 236 240 243 243 242 242 243 245 247 249 252 254 255 256 257 257 258 259 260 260 262 264
251 251 251 251 251 251 250 249 249 248 248 247 245 242 241 239 238 237 235 235 235 237 238 238 238 238 238 238 237 236 234 232 234 235 235 232 226 219 219 223 223 222 223 224 224 226 230 231 231 231 229 228 232 236 236 233 234 236 235 233 232 230 232 234 238 242 245 244 244 243 244 245 248 250 252 254 254 255 256 257 259 261 262 262 262
252 252 251 251 251 251 251 250 249 249 249 248 247 245 244 242 241 240 239 238 237 237 237 237 237 238 238 238 238 238 237 234 233 235 236 237 235 227 220 221 223 223 222 223 224 225 228 230 231 230 226 227 232 234 234 233 229 228 231 234 235 234 234 235 237 243 247 248 247 247 246 247 248 249 251 253 253 253 254 256 258 260 261 261 262
252 252 252 252 252 251 251 250 250 250 250 249 249 248 246 245 243 242 241 241 240 239 239 238 238 237 237 238 238 239 239 238 235 234 235 237 238 235 228 222 222 223 223 223 224 225 227 229 229 229 227 226 229 231 234 236 232 225 225 228 231 234 238 240 240 242 246 250 253 253 251 251 250 250 252 252 252 252 252 254 256 258 260 260 262
251 252 252 252 252 252 251 251 251 250 250 250 250 249 248 247 246 244 243 242 242 241 241 240 239 238 238 237 238 238 239 240 238 236 235 235 237 238 235 229 224 223 224 224 224 225 228 228 227 227 227 227 228 228 230 233 234 230 228 225 224 228 235 241 244 246 250 255 258 258 255 254 253 252 252 252 252 252 252 253 255 257 259 260 263
252 252 253 252 252 252 252 251 251 251 251 251 251 250 249 248 247 246 245 244 243 242 242 241 241 240 239 238 238 238 238 239 240 239 237 236 236 236 237 235 231 226 224 224 225 226 227 228 227 225 226 228 228 226 226 228 231 232 232 230 228 226 227 233 239 244 249 253 258 261 259 256 255 254 254 253 252 252 253 254 255 258 260 261 263
251 252 252 253 253 252 252 252 252 252 252 252 252 251 250 249 248 247 246 245 245 244 243 242 242 241 241 240 238 238 238 238 239 240 239 237 236 236 236 236 236 233 229 226 225 226 227 227 227 225 225 227 229 228 225 225 228 231 233 233 232 231 229 230 235 241 245 248 252 257 260 258 257 257 256 255 255 254 255 256 257 259 260 262 263
252 252 252 252 253 253 253 252 253 253 253 252 252 252 251 250 249 248 247 246 246 246 245 244 244 243 242 241 241 239 238 238 238 239 239 239 238 237 236 236 236 236 235 232 228 226 226 226 227 226 225 226 228 229 227 226 227 231 234 234 234 235 234 235 238 243 247 249 249 250 253 255 258 261 261 260 258 257 258 259 260 260 261 263 263
254 253 252 252 252 252 252 252 253 254 254 253 253 253 252 251 250 249 248 247 246 246 246 246 245 245 244 243 242 241 240 239 238 238 238 239 239 238 237 236 236 236 236 236 234 231 227 225 226 226 226 226 227 229 230 229 229 230 233 235 235 237 237 237 238 241 245 248 249 250 248 248 252 257 259 260 259 258 259 260 262 263 263 263 265
Height
10904 10900 10899 10897 10896 10896 10896 10896 10895 10894 10894 10894 10892 10891 10890 10889 10888 10887 10885 10882 10880 10879 10876 10874 10871 10868 10866 10864 10861 10859 10857 10855 10854 10853 10852 10851 10851 10851 10851 10850 10849 10848 10848 10847 10845 10843 10843 10843 10843 10843 10843 10844 10846 10847 10848 10849 10850 10850 10852 10852 10853 10853 10854 10854 10855 10856 10857 10858 10859 10859 10859 10858 10859 10859 10859 10859 10859 10861 10863 10863 10863 10863 10863 10862 10862
10901 10898 10895 10892 10891 10891 10891 10890 10889 10890 10890 10889 10887 10886 10884 10883 10883 10882 10880 10877 10874 10873 10871 10868 10866 10864 10862 10859 10856 10854 10852 10850 10850 10849 10848 10847 10847 10847 10848 10846 10845 10845 10844 10843 10841 10840 10840 10840 10841 10840 10841 10842 10843 10844 10845 10847 10848 10848 10850 10851 10851 10852 10852 10853 10854 10855 10856 10857 10858 10858 10858 10858 10858 10858 10858 10858 10858 10859 10861 10862 10862 10862 10862 10862 10862
10895 10894 10891 10887 10886 10886 10885 10884 10884 10884 10885 10884 10882 10881 10879 10877 10876 10876 10874 10871 10868 10867 10865 10863 10861 10859 10858 10854 10850 10848 10847 10845 10845 10844 10843 10843 10843 10843 10844 10843 10842 10841 10841 10840 10838 10837 10837 10837 10838 10838 10838 10839 10840 10842 10843 10845 10846 10846 10848 10849 10850 10851 10851 10852 10853 10854 10855 10856 10857 10857 10857 10857 10857 10857 10857 10857 10857 10858 10859 10860 10861 10862 10862 10862 10861
10889 10887 10885 10882 10881 10879 10879 10878 10878 10879 10879 10879 10877 10875 10873 10870 10870 10869 10868 10865 10862 10861 10860 10858 10855 10854 10853 10849 10844 10842 10842 10841 10840 10839 10839 10839 10839 10839 10839 10839 10838 10837 10837 10836 10835 10834 10834 10834 10835 10836 10836 10837 10838 10839 10841 10843 10844 10845 10846 10847 10848 10849 10850 10851 10852 10853 10854 10855 10856 10857 10857 10857 10857 10856 10856 10856 10857 10857 10858 10859 10860 10861 10861 10861 10861
10884 10878 10878 10878 10874 10871 10872 10872 10872 10873 10873 10874 10872 10869 10867 10864 10863 10863 10862 10859 10857 10855 10854 10852 10850 10848 10846 10843 10837 10837 10837 10836 10836 10835 10835 10835 10835 10834 10834 10835 10834 10833 10833 10832 10831 10831 10831 10831 10831 10833 10834 10834 10835 10836 10838 10841 10842 10843 10844 10846 10847 10848 10849 10849 10850 10851 10853 10854 10856 10856 10857 10857 10856 10856 10856 10856 10856 10857 10858 10859 10859 10860 10860 10860 10860
10884 10873 10869 10870 10867 10864 10867 10868 10866 10867 10867 10868 10866 10863 10860 10858 10856 10856 10856 10854 10851 10849 10847 10846 10844 10842 10841 10837 10831 10831 10834 10832 10831 10830 10830 10830 10830 10830 10830 10830 10830 10830 10830 10829 10828 10828 10828 10828 10828 10829 10831 10831 10833 10834 10836 10838 10840 10841 10842 10844 10845 10846 10847 10847 10849 10850 10852 10853 10855 10856 10856 10857 10856 10856 10855 10856 10856 10857 10858 10859 10859 10859 10860 10860 10860
10883 10875 10866 10861 10857 10857 10861 10862 10860 10860 10861 10861 10859 10856 10854 10852 10850 10849 10849 10849 10846 10842 10841 10839 10838 10837 10836 10833 10826 10826 10829 10828 10826 10825 10825 10826 10826 10826 10825 10825 10826 10826 10826 10826 10825 10825 10825 10825 10826 10827 10828 10829 10830 10832 10834 10836 10838 10839 10840 10842 10843 10844 10845 10846 10847 10849 10850 10852 10854 10855 10856 10856 10856 10855 10855 10855 10856 10856 10857 10858 10859 10859 10859 10859 10859
10876 10875 10868 10860 10853 10849 10851 10854 10854 10854 10854 10854 10852 10849 10847 10846 10844 10843 10842 10841 10840 10837 10835 10834 10833 10832 10830 10828 10822 10822 10823 10823 10821 10821 10821 10822 10822 10822 10821 10821 10822 10822 10823 10823 10822 10822 10822 10823 10824 10825 10826 10827 10829 10831 10832 10834 10836 10837 10838 10840 10841 10842 10843 10844 10846 10847 10849 10850 10852 10854 10855 10856 10856 10855 10855 10855 10855 10856 10857 10857 10858 10858 10858 10858 10858
10867 10869 10866 10860 10855 10847 10845 10847 10848 10847 10848 10848 10845 10842 10841 10840 10839 10837 10836 10834 10833 10831 10829 10829 10828 10826 10825 10822 10819 10819 10818 10818 10817 10817 10818 10818 10817 10817 10817 10818 10818 10818 10819 10819 10819 10819 10819 10820 10821 10822 10823 10825 10827 10830 10831 10832 10834 10836 10837 10839 10840 10841 10842 10843 10844 10845 10847 10849 10851 10853 10854 10855 10855 10855 10855 10855 10855 10856 10856 10857 10857 10857 10858 10858 10857
10856 10859 10857 10855 10852 10848 10846 10845 10844 10843 10843 10842 10839 10836 10835 10835 10834 10832 10829 10827 10826 10825 10824 10823 10823 10821 10819 10817 10815 10815 10814 10813 10813 10813 10814 10814 10813 10814 10813 10814 10814 10814 10815 10816 10816 10816 10816 10817 10818 10819 10821 10822 10825 10827 10829 10830 10832 10834 10835 10837 10839 10840 10841 10842 10843 10844 10846 10848 10850 10852 10853 10853 10854 10854 10854 10855 10855 10855 10855 10856 10856 10857 10857 10857 10856
10845 10847 10846 10845 10844 10844 10843 10842 10841 10839 10838 10837 10833 10830 10829 10829 10828 10825 10823 10820 10819 10819 10818 10817 10818 10816 10814 10812 10811 10811 10810 10809 10809 10809 10810 10810 10810 10810 10809 10809 10810 10810 10811 10812 10812 10813 10813 10813 10814 10816 10818 10820 10822 10825 10826 10828 10830 10832 10833 10835 10837 10838 10839 10840 10842 10843 10844 10846 10848 10850 10851 10852 10852 10852 10853 10854 10854 10854 10855 10855 10855 10856 10856 10856 10855
10837 10838 10836 10835 10834 10836 10837 10837 10835 10832 10831 10830 10827 10824 10824 10823 10821 10819 10816 10814 10812 10812 10812 10812 10812 10811 10809 10808 10807 10806 10805 10805 10805 10805 10806 10806 10806 10806 10805 10805 10806 10806 10807 10808 10808 10809 10809 10809 10811 10813 10815 10817 10819 10822 10823 10825 10827 10829 10831 10833 10835 10836 10838 10839 10840 10842 10843 10845 10846 10848 10849 10850 10850 10850 10851 10852 10853 10853 10854 10854 10855 10855 10855 10854 10854
10830 10830 10828 10826 10826 10828 10829 10829 10828 10825 10824 10823 10821 10819 10818 10816 10814 10813 10810 10808 10807 10805 10806 10806 10807 10806 10805 10804 10803 10803 10801 10801 10802 10802 10802 10803 10803 10802 10801 10802 10802 10802 10803 10804 10804 10805 10805 10806 10808 10810 10812 10814 10816 10819 10820 10822 10825 10827 10829 10831 10832 10834 10836 10838 10838 10840 10841 10843 10845 10846 10847 10848 10848 10848 10849 10850 10851 10852 10852 10853 10853 10853 10853 10853 10852
10824 10822 10819 10818 10819 10820 10821 10822 10820 10818 10817 10816 10815 10813 10811 10810 10808 10807 10804 10802 10801 10800 10801 10801 10801 10802 10801 10800 10799 10799 10798 10798 10799 10799 10799 10800 10799 10799 10798 10798 10798 10799 10800 10800 10800 10801 10802 10803 10805 10807 10809 10811 10813 10816 10818 10820 10823 10825 10827 10829 10830 10832 10834 10836 10837 10839 10840 10842 10843 10844 10845 10846 10846 10846 10847 10848 10849 10850 10851 10851 10851 10852 10852 10852 10851
10817 10816 10812 10811 10811 10812 10814 10814 10813 10811 10811 10809 10808 10807 10805 10803 10802 10801 10798 10797 10796 10795 10795 10796 10796 10797 10798 10796 10795 10795 10795 10795 10795 10795 10796 10797 10796 10795 10795 10795 10795 10795 10796 10796 10796 10797 10799 10800 10802 10804 10806 10808 10811 10814 10816 10818 10821 10823 10824 10826 10828 10830 10831 10833 10835 10837 10838 10840 10841 10843 10843 10843 10843 10844 10845 10846 10847 10848 10848 10849 10849 10850 10850 10850 10850
10808 10809 10806 10804 10803 10804 10806 10806 10806 10805 10805 10804 10803 10801 10799 10797 10796 10796 10793 10792 10791 10791 10791 10791 10792 10793 10794 10793 10792 10791 10791 10791 10792 10792 10792 10793 10793 10792 10792 10791 10792 10793 10793 10793 10793 10794 10795 10797 10799 10801 10803 10805 10808 10811 10814 10816 10818 10821 10823 10824 10827 10828 10830 10831 10832 10834 10836 10838 10840 10841 10841 10841 10842 10842 10843 10844 10844 10845 10846 10847 10847 10848 10848 10848 10848
10799 10800 10799 10798 10796 10797 10798 10799 10799 10798 10798 10797 10797 10796 10793 10791 10790 10789 10789 10788 10787 10787 10787 10787 10788 10789 10790 10789 10788 10788 10787 10786 10787 10788 10789 10790 10790 10789 10789 10788 10789 10790 10790 10790 10790 10791 10793 10794 10796 10798 10800 10802 10805 10809 10812 10814 10816 10818 10821 10823 10825 10826 10829 10830 10830 10832 10834 10836 10838 10839 10839 10839 10840 10840 10841 10842 10843 10843 10844 10845 10845 10846 10846 10847 10847
10790 10790 10791 10790 10789 10790 10790 10791 10791 10791 10792 10791 10790 10789 10788 10787 10785 10784 10784 10784 10783 10783 10783 10783 10784 10785 10786 10786 10785 10784 10783 10782 10782 10784 10786 10787 10787 10786 10785 10785 10786 10787 10787 10787 10787 10788 10790 10792 10794 10795 10797 10800 10802 10806 10809 10811 10813 10816 10819 10821 10822 10823 10825 10827 10829 10830 10832 10834 10835 10836 10837 10838 10838 10839 10840 10841 10841 10842 10843 10843 10844 10844 10845 10845 10846
10781 10781 10782 10782 10781 10782 10783 10784 10784 10785 10785 10785 10784 10782 10782 10782 10781 10780 10780 10779 10778 10779 10780 10779 10780 10781 10782 10783 10782 10781 10781 10780 10778 10780 10782 10784 10784 10783 10783 10782 10783 10784 10784 10784 10785 10786 10787 10789 10791 10793 10795 10797 10800 10803 10806 10809 10811 10814 10816 10818 10820 10821 10821 10824 10827 10828 10830 10832 10833 10835 10835 10836 10837 10838 10839 10840 10840 10841 10842 10842 10843 10843 10844 10844 10845
10773 10773 10774 10774 10774 10774 10775 10776 10776 10778 10779 10781 10779 10775 10776 10777 10777 10777 10776 10774 10774 10775 10776 10776 10775 10776 10777 10779 10779 10778 10778 10778 10777 10777 10780 10782 10781 10780 10780 10780 10780 10781 10782 10782 10783 10783 10785 10787 10789 10790 10792 10795 10797 10800 10803 10806 10809 10812 10814 10816 10818 10819 10819 10822 10824 10826 10828 10829 10831 10833 10834 10834 10836 10837 10838 10839 10839 10840 10840 10841 10841 10842 10842 10843 10843
10765 10766 10766 10767 10767 10767 10767 10768 10768 10770 10772 10775 10775 10772 10771 10772 10772 10773 10772 10770 10770 10771 10771 10771 10771 10771 10772 10774 10776 10776 10775 10775 10775 10775 10778 10780 10778 10778 10777 10778 10778 10779 10779 10779 10780 10781 10782 10785 10786 10788 10789 10791 10794 10797 10800 10803 10806 10809 10812 10814 10816 10816 10817 10820 10822 10823 10825 10827 10829 10831 10832 10833 10834 10835 10836 10837 10838 10839 10839 10840 10840 10841 10841 10842 10842
10758 10758 10758 10759 10759 10759 10759 10760 10760 10761 10763 10765 10768 10769 10767 10768 10769 10768 10766 10765 10766 10765 10765 10766 10766 10767 10767 10768 10771 10773 10773 10772 10773 10773 10776 10777 10776 10776 10775 10775 10776 10776 10776 10777 10778 10779 10780 10782 10784 10785 10787 10789 10791 10795 10798 10801 10804 10807 10810 10812 10813 10814 10815 10817 10819 10820 10822 10824 10826 10829 10830 10832 10833 10834 10835 10836 10837 10837 10838 10838 10839 10839 10840 10840 10841
10750 10750 10750 10751 10752 10752 10752 10752 10752 10753 10754 10755 10758 10761 10761 10762 10763 10763 10761 10761 10761 10761 10761 10762 10762 10763 10763 10764 10766 10769 10770 10770 10771 10771 10773 10774 10774 10774 10774 10773 10773 10774 10774 10775 10776 10777 10778 10780 10782 10783 10784 10786 10789 10792 10796 10799 10802 10805 10807 10809 10811 10812 10813 10814 10816 10818 10819 10820 10823 10826 10828 10830 10831 10832 10833 10834 10835 10836 10836 10836 10837 10837 10838 10838 10839
10743 10743 10744 10744 10745 10745 10745 10746 10746 10747 10747 10748 10749 10753 10754 10754 10755 10756 10757 10757 10756 10757 10758 10758 10757 10758 10759 10760 10763 10766 10767 10768 10768 10768 10770 10772 10773 10772 10771 10771 10771 10771 10772 10773 10774 10775 10776 10778 10779 10780 10782 10784 10787 10790 10793 10797 10800 10802 10805 10807 10809 10810 10812 10812 10813 10815 10817 10818 10820 10823 10825 10828 10829 10830 10831 10832 10833 10834 10834 10835 10835 10836 10836 10837 10838
10736 10737 10737 10738 10739 10740 10740 10741 10741 10741 10741 10742 10743 10746 10748 10748 10749 10750 10753 10753 10752 10754 10754 10754 10754 10754 10756 10757 10760 10763 10764 10766 10766 10766 10768 10770 10771 10771 10769 10769 10768 10769 10770 10771 10772 10773 10774 10776 10777 10778 10780 10782 10784 10787 10791 10794 10798 10800 10802 10804 10807 10808 10809 10810 10811 10813 10815 10817 10819 10821 10823 10826 10827 10828 10830 10831 10832 10832 10833 10833 10834 10834 10835 10835 10836
10729 10730 10730 10732 10733 10734 10735 10736 10736 10736 10736 10737 10737 10739 10742 10742 10743 10745 10748 10749 10749 10749 10749 10750 10751 10751 10753 10755 10759 10761 10762 10765 10765 10766 10768 10768 10770 10769 10767 10767 10766 10767 10768 10769 10770 10771 10772 10773 10775 10776 10778 10780 10782 10785 10788 10792 10795 10798 10799 10801 10804 10806 10807 10808 10809 10811 10814 10815 10817 10819 10821 10823 10825 10826 10828 10829 10830 10830 10831 10832 10832 10832 10833 10833 10834
10723 10723 10723 10725 10727 10728 10729 10730 10731 10731 10731 10732 10732 10733 10736 10737 10738 10741 10742 10744 10746 10744 10743 10746 10748 10749 10752 10754 10757 10759 10761 10764 10764 10766 10767 10767 10769 10768 10765 10765 10765 10765 10766 10766 10768 10768 10770 10771 10772 10774 10776 10778 10780 10782 10785 10789 10793 10795 10796 10797 10801 10803 10804 10805 10806 10808 10811 10813 10814 10817 10819 10821 10822 10824 10825 10826 10827 10828 10829 10830 10830 10830 10831 10831 10832
10717 10717 10717 10718 10720 10721 10723 10724 10725 10726 10727 10727 10728 10728 10730 10733 10735 10738 10739 10740 10742 10741 10741 10743 10746 10748 10751 10754 10756 10757 10759 10762 10762 10763 10766 10766 10769 10770 10766 10764 10763 10763 10764 10764 10765 10766 10767 10768 10770 10771 10774 10776 10778 10780 10783 10786 10790 10792 10793 10794 10797 10800 10801 10802 10804 10806 10808 10810 10812 10814 10816 10818 10819 10821 10822 10824 10825 10826 10827 10828 10828 10829 10829 10829 10830
10711 10711 10712 10712 10714 10715 10716 10718 10720 10721 10722 10723 10724 10725 10726 10728 10731 10735 10737 10738 10738 10737 10738 10742 10746 10749 10750 10752 10753 10756 10758 10758 10757 10757 10761 10764 10767 10768 10765 10763 10763 10762 10762 10762 10763 10764 10765 10766 10768 10769 10771 10773 10775 10777 10780 10784 10787 10789 10790 10792 10794 10796 10798 10800 10802 10804 10805 10808 10810 10811 10813 10814 10816 10817 10819 10820 10822 10824 10825 10826 10826 10827 10827 10827 10828
10706 10706 10707 10707 10708 10710 10711 10713 10714 10716 10718 10719 10721 10721 10722 10724 10727 10730 10732 10734 10733 10733 10735 10739 10745 10747 10749 10749 10750 10753 10755 10754 10753 10753 10757 10760 10762 10763 10762 10763 10762 10760 10760 10760 10761 10761 10763 10764 10765 10766 10768 10770 10772 10774 10777 10781 10785 10786 10787 10789 10791 10793 10796 10797 10800 10801 10803 10806 10807 10808 10810 10812 10813 10815 10817 10818 10819 10821 10822 10823 10824 10824 10825 10825 10825
10701 10701 10701 10702 10703 10705 10706 10708 10710 10712 10713 10715 10717 10718 10719 10720 10722 10725 10727 10729 10729 10730 10732 10736 10741 10744 10746 10748 10748 10751 10753 10751 10750 10752 10754 10757 10758 10758 10760 10761 10761 10759 10759 10759 10759 10759 10760 10761 10763 10764 10766 10767 10769 10772 10775 10779 10782 10784 10785 10786 10788 10790 10793 10795 10798 10799 10801 10803 10805 10806 10808 10810 10811 10813 10814 10816 10817 10818 10820 10821 10821 10822 10822 10822 10823
10695 10696 10696 10698 10699 10700 10702 10704 10705 10707 10709 10711 10713 10714 10715 10717 10718 10720 10722 10724 10726 10728 10730 10733 10737 10740 10743 10746 10748 10751 10752 10750 10748 10749 10751 10754 10755 10754 10756 10758 10758 10758 10758 10757 10756 10757 10758 10759 10760 10762 10763 10765 10767 10769 10772 10776 10779 10781 10782 10784 10785 10787 10790 10793 10796 10797 10799 10801 10802 10803 10805 10806 10808 10809 10811 10812 10814 10816 10817 10818 10818 10819 10819 10820 10820
10691 10691 10692 10693 10695 10697 10698 10700 10701 10703 10705 10707 10709 10710 10712 10713 10714 10716 10718 10720 10722 10724 10727 10730 10732 10735 10739 10742 10745 10747 10749 10749 10746 10745 10747 10750 10751 10751 10751 10753 10754 10756 10756 10755 10754 10755 10755 10757 10758 10759 10761 10762 10764 10766 10769 10772 10775 10778 10779 10780 10782 10784 10787 10791 10794 10795 10797 10798 10800 10801 10802 10804 10805 10806 10807 10809 10811 10812 10814 10815 10816 10816 10817 10817 10817
10686 10687 10688 10689 10691 10693 10695 10696 10697 10699 10701 10703 10704 10706 10707 10709 10710 10712 10714 10716 10718 10720 10723 10726 10728 10730 10733 10736 10740 10741 10743 10745 10743 10742 10743 10746 10748 10748 10747 10748 10750 10753 10754 10753 10752 10753 10754 10755 10756 10757 10758 10760 10761 10763 10766 10769 10772 10775 10776 10777 10779 10781 10784 10788 10791 10793 10795 10796 10798 10799 10800 10802 10803 10803 10805 10806 10807 10809 10811 10812 10812 10813 10813 10814 10815
10682 10682 10684 10686 10687 10689 10691 10692 10694 10695 10696 10698 10700 10701 10703 10705 10706 10708 10710 10712 10714 10716 10718 10721 10723 10725 10728 10731 10734 10736 10738 10739 10740 10740 10741 10742 10744 10744 10744 10745 10747 10750 10752 10752 10751 10751 10752 10753 10754 10755 10756 10757 10759 10761 10763 10765 10768 10771 10773 10775 10777 10779 10782 10785 10788 10791 10793 10794 10796 10797 10798 10799 10800 10801 10802 10803 10805 10806 10807 10809 10810 10810 10811 10811 10812
10678 10678 10679 10681 10683 10685 10687 10689 10690 10691 10692 10694 10695 10697 10699 10701 10702 10704 10706 10708 10710 10712 10714 10717 10719 10721 10723 10726 10728 10731 10733 10734 10735 10737 10737 10739 10740 10741 10742 10743 10745 10748 10750 10751 10749 10749 10750 10751 10752 10753 10754 10754 10756 10758 10760 10762 10765 10768 10770 10772 10774 10777 10779 10782 10785 10788 10789 10791 10793 10794 10795 10796 10797 10798 10800 10801 10802 10803 10805 10806 10807 10808 10808 10809 10810
10674 10674 10675 10677 10679 10681 10683 10685 10686 10688 10689 10690 10691 10693 10695 10697 10698 10700 10702 10704 10706 10708 10711 10713 10715 10717 10719 10720 10723 10726 10728 10729 10731 10732 10733 10734 10737 10739 10741 10743 10744 10746 10748 10749 10748 10747 10748 10749 10751 10752 10752 10752 10753 10754 10756 10759 10761 10764 10767 10769 10772 10774 10777 10779 10782 10784 10786 10787 10789 10791 10792 10794 10795 10796 10797 10799 10800 10801 10802 10804 10805 10806 10806 10807 10808
10670 10670 10671 10673 10675 10677 10679 10681 10682 10684 10685 10686 10687 10689 10691 10693 10694 10696 10698 10700 10702 10704 10707 10709 10711 10713 10715 10716 10718 10721 10724 10725 10727 10728 10729 10730 10733 10736 10739 10742 10743 10743 10745 10746 10746 10746 10746 10747 10748 10751 10751 10751 10751 10752 10753 10756 10758 10761 10763 10766 10768 10771 10773 10776 10779 10781 10783 10785 10787 10788 10789 10791 10792 10793 10795 10796 10797 10798 10800 10801 10802 10803 10804 10804 10805
10666 10666 10668 10669 10671 10673 10675 10677 10678 10680 10681 10682 10684 10685 10687 10688 10690 10692 10694 10696 10698 10700 10703 10705 10707 10709 10710 10712 10714 10717 10719 10721 10723 10724 10725 10727 10730 10731 10734 10739 10739 10740 10741 10742 10743 10743 10745 10746 10747 10748 10749 10749 10750 10750 10752 10753 10755 10757 10760 10762 10765 10767 10769 10773 10776 10778 10780 10782 10783 10785 10786 10788 10789 10790 10792 10793 10794 10795 10797 10798 10800 10801 10802 10802 10801
10662 10663 10664 10665 10667 10668 10670 10672 10673 10675 10677 10678 10680 10681 10683 10684 10686 10688 10690 10692 10694 10696 10698 10700 10702 10704 10706 10707 10709 10712 10713 10716 10718 10720 10722 10724 10726 10727 10729 10732 10733 10735 10737 10738 10740 10741 10742 10744 10745 10745 10746 10746 10748 10750 10750 10751 10752 10754 10756 10758 10761 10763 10766 10769 10772 10774 10776 10778 10780 10781 10782 10785 10786 10787 10788 10790 10791 10792 10794 10795 10797 10799 10800 10799 10798
10657 10659 10660 10661 10663 10664 10666 10667 10668 10670 10672 10673 10675 10677 10679 10681 10682 10683 10685 10687 10689 10691 10693 10695 10697 10698 10701 10703 10704 10706 10708 10710 10712 10715 10717 10719 10721 10722 10724 10725 10727 10730 10732 10734 10736 10738 10739 10741 10742 10742 10743 10744 10746 10747 10749 10750 10750 10751 10753 10754 10757 10760 10763 10765 10767 10770 10772 10774 10775 10777 10779 10781 10782 10784 10785 10787 10789 10790 10791 10792 10794 10795 10796 10797 10796
10653 10654 10656 10657 10658 10660 10661 10662 10664 10665 10667 10668 10670 10673 10675 10676 10678 10679 10681 10682 10684 10686 10688 10690 10692 10693 10696 10698 10699 10701 10703 10704 10706 10709 10711 10714 10716 10717 10719 10720 10722 10725 10727 10730 10732 10734 10735 10737 10738 10738 10740 10742 10743 10744 10745 10747 10747 10748 10750 10752 10754 10757 10759 10761 10764 10765 10767 10768 10771 10773 10776 10777 10779 10780 10782 10784 10785 10787 10788 10789 10790 10791 10793 10793 10793
10648 10649 10651 10652 10653 10655 10656 10657 10659 10660 10661 10663 10665 10668 10670 10671 10673 10675 10676 10678 10680 10681 10683 10685 10687 10689 10690 10692 10694 10695 10697 10699 10701 10703 10705 10707 10710 10712 10714 10715 10718 10720 10722 10725 10727 10729 10730 10731 10733 10734 10736 10739 10740 10741 10741 10743 10744 10745 10748 10749 10751 10753 10755 10758 10759 10761 10762 10765 10768 10771 10772 10774 10775 10777 10779 10780 10782 10783 10784 10785 10786 10787 10789 10789 10790
10643 10645 10646 10647 10648 10650 10651 10653 10654 10655 10656 10657 10660 10662 10664 10666 10668 10670 10672 10673 10675 10676 10678 10680 10682 10684 10685 10687 10688 10689 10692 10694 10696 10697 10699 10701 10704 10707 10709 10711 10713 10715 10717 10719 10722 10723 10724 10726 10728 10730 10733 10735 10737 10737 10738 10740 10740 10742 10744 10746 10747 10750 10752 10753 10755 10757 10759 10762 10765 10766 10768 10769 10771 10773 10775 10776 10778 10779 10780 10781 10782 10784 10785 10785 10786
10638 10640 10641 10642 10643 10645 10646 10647 10649 10650 10651 10652 10654 10657 10659 10661 10663 10665 10667 10668 10670 10671 10673 10675 10676 10678 10680 10681 10683 10684 10686 10689 10691 10692 10694 10696 10698 10701 10704 10706 10708 10709 10712 10714 10716 10718 10720 10722 10724 10726 10729 10731 10733 10734 10735 10735 10736 10738 10740 10742 10744 10746 10748 10749 10752 10754 10756 10759 10760 10761 10764 10765 10767 10769 10771 10772 10773 10775 10776 10777 10778 10779 10780 10781 10782
10633 10634 10635 10637 10638 10639 10641 10642 10644 10645 10646 10647 10649 10651 10653 10655 10657 10659 10661 10663 10664 10665 10667 10669 10671 10673 10674 10676 10677 10679 10680 10682 10685 10687 10689 10691 10692 10695 10698 10700 10702 10704 10706 10708 10710 10712 10715 10717 10719 10722 10724 10726 10728 10730 10731 10730 10732 10734 10736 10738 10740 10742 10744 10746 10749 10751 10753 10755 10756 10758 10760 10761 10762 10764 10766 10767 10769 10770 10771 10772 10773 10774 10775 10776 10778
10627 10629 10630 10631 10632 10634 10635 10637 10638 10640 10641 10642 10643 10645 10647 10649 10651 10653 10655 10657 10658 10659 10661 10662 10664 10666 10668 10670 10672 10673 10675 10676 10678 10681 10683 10685 10687 10689 10692 10694 10696 10698 10701 10703 10705 10706 10709 10711 10714 10717 10719 10721 10724 10726 10725 10725 10728 10731 10732 10734 10737 10738 10740 10743 10745 10747 10750 10752 10753 10754 10755 10756 10758 10760 10761 10762 10764 10765 10766 10767 10768 10769 10770 10772 10774
10622 10623 10625 10626 10627 10628 10629 10631 10633 10634 10635 10636 10638 10639 10641 10642 10644 10646 10648 10650 10651 10653 10655 10656 10658 10659 10661 10663 10665 10667 10669 10670 10672 10674 10677 10679 10681 10683 10686 10688 10690 10692 10694 10697 10699 10700 10703 10706 10709 10712 10714 10716 10718 10719 10719 10720 10724 10726 10728 10731 10733 10735 10736 10738 10741 10743 10746 10748 10749 10750 10751 10752 10753 10755 10756 10757 10759 10760 10761 10762 10763 10765 10767 10768 10770
10616 10617 10618 10619 10621 10622 10624 10625 10627 10628 10629 10630 10631 10632 10634 10636 10637 10639 10641 10643 10645 10646 10648 10650 10651 10653 10654 10656 10658 10661 10662 10664 10666 10668 10670 10673 10675 10677 10679 10681 10683 10686 10688 10690 10692 10694 10697 10700 10703 10705 10707 10710 10712 10714 10715 10716 10719 10721 10723 10726 10728 10730 10731 10733 10736 10738 10741 10744 10745 10746 10747 10748 10749 10750 10751 10753 10754 10756 10757 10757 10759 10761 10763 10764 10764
10609 10611 10612 10613 10615 10616 10618 10619 10621 10622 10623 10624 10625 10625 10627 10629 10631 10633 10635 10637 10638 10640 10641 10643 10645 10646 10648 10649 10651 10654 10656 10658 10660 10662 10664 10666 10668 10670 10672 10674 10677 10679 10681 10683 10685 10688 10691 10694 10696 10699 10701 10704 10707 10709 10710 10712 10714 10716 10718 10721 10723 10725 10727 10729 10731 10733 10736 10738 10739 10741 10742 10744 10745 10746 10748 10749 10750 10752 10753 10753 10755 10757 10758 10759 10759
10602 10603 10605 10607 10608 10610 10612 10613 10615 10616 10617 10618 10618 10618 10619 10621 10623 10625 10628 10630 10632 10633 10634 10636 10638 10639 10641 10643 10644 10646 10648 10651 10653 10655 10657 10659 10661 10663 10665 10668 10670 10672 10674 10676 10678 10681 10684 10687 10690 10692 10695 10698 10701 10703 10705 10707 10709 10711 10713 10715 10718 10719 10722 10724 10725 10727 10730 10732 10734 10735 10737 10739 10741 10742 10744 10745 10746 10748 10749 10749 10750 10752 10754 10754 10754